Regional Weather Roundup
Issued by NWS

Home | Current Version | Previous Version | Graphics & Text | Print | Product List | Glossary On
Versions: 1 2 3 4 5 6 7 8 9 10 11 12 13 14 15 16 17 18 19 20 21 22 23 24 25 26 27 28 29 30 31 32 33 34 35 36 37 38 39 40 41 42 43 44 45 46 47 48 49 50
000
ASUS43 KLMK 022210
RWRKY
KENTUCKY REGIONAL WEATHER ROUNDUP
NATIONAL WEATHER SERVICE LOUISVILLE KY
500 PM EST MON MAR 02 2015

NOTE "FAIR" INDICATES FEW OR NO CLOUDS BELOW 12,000 FEET
WITH NO SIGNIFICANT WEATHER AND/OR OBSTRUCTIONS TO VISIBILITY.

KYZ001>023-026-027-061>063-070>075-022300-
WESTERN AND SOUTH CENTRAL KENTUCKY

CITY           SKY/WX    TMP DP  RH WIND       PRES   REMARKS
PADUCAH        MOSUNNY   39  21  48 NE7       30.37F WCI  34
HENDERSON      PTSUNNY   37  19  48 NE8       30.41F WCI  31
OWENSBORO      MOSUNNY   41  21  44 E8        30.41F
HOPKINSVILLE   SUNNY     43  25  49 NE6       30.36F
BOWLING GREEN  PTSUNNY   45  21  38 E12       30.37F
GLASGOW        SUNNY     43  23  45 NE8       30.37F
$$

KYZ024-025-028>034-038-045-046-053-022300-
NORTH CENTRAL KENTUCKY

CITY           SKY/WX    TMP DP  RH WIND       PRES   REMARKS
LOUISVILLE/SDF PTSUNNY   39  15  37 NE8       30.42F WCI  33
LOUISVILLE/LOU PTSUNNY   38  15  39 NE7       30.42F WCI  33
FORT KNOX      PTSUNNY   38  16  40 NE7       30.38F WCI  33
$$

KYZ035>037-039>044-047>052-055>060-089>105-022300-
NORTHEAST KENTUCKY

CITY           SKY/WX    TMP DP  RH WIND       PRES   REMARKS
LEXINGTON      MOSUNNY   34  22  61 N9        30.41F WCI  27
COVINGTON      PTSUNNY   33  14  45 E6        30.42F WCI  28
FRANKFORT      MOSUNNY   36  19  50 MISG      30.40F
$$

KYZ054-064>069-076>088-106>120-022300-
SOUTHEAST KENTUCKY

CITY           SKY/WX    TMP DP  RH WIND       PRES   REMARKS
JACKSON        FAIR      41  18  39 NE3       30.35F
LONDON         MOSUNNY   45  20  36 N7        30.35F
SOMERSET       MOSUNNY   41  21  45 N6        30.38F
MIDDLESBORO    SUNNY     46  28  49 CALM      30.35S
MONTICELLO     CLEAR     45  28  51 NW9       30.38F
$$



USA.gov is the U.S. government's official web portal to all federal, state and local government web resources and services.